When you browse on this site, cookies collect data to enhance your experience and personalize the content and advertising you see.
Visit our Privacy Policy to learn more. By continuing to use the site, you agree to this use of cookies and data.
  • In Portugal
  • List of Countries
  • For 7 days
  • Water Temperature
  • Satellite Maps
  • Weather Map
  • Weather Widgets
  • user-avatar
    Login

    Hourly Weather Potosi

    Today, 18 June, Tuesday

    Time Temperature Precipitation Wind Pressure Humidity
    00:00 +2°C° 0 mm 3 mps 466 mmHg 35%
    01:00 +2°C° 0 mm 3 mps 465 mmHg 33%
    02:00 +1°C° 0 mm 3 mps 465 mmHg 32%
    03:00 +1°C° 0 mm 3 mps 464 mmHg 32%
    04:00 0°C° 0 mm 3 mps 464 mmHg 32%
    05:00 0°C° 0 mm 3 mps 464 mmHg 32%
    06:00 +1°C° 0 mm 3 mps 465 mmHg 31%
    07:00 +2°C° 0 mm 2 mps 465 mmHg 30%
    08:00 +3°C° 0 mm 2 mps 466 mmHg 29%
    09:00 +4°C° 0 mm 3 mps 468 mmHg 24%
    10:00 +7°C° 0 mm 4 mps 469 mmHg 19%
    11:00 +10°C° 0 mm 4 mps 471 mmHg 14%
    12:00 +10°C° 0 mm 5 mps 471 mmHg 13%
    13:00 +11°C° 0 mm 6 mps 471 mmHg 13%
    14:00 +13°C° 0 mm 6 mps 471 mmHg 13%
    15:00 +12°C° 0 mm 5 mps 470 mmHg 15%
    16:00 +10°C° 0 mm 5 mps 469 mmHg 17%
    17:00 +11°C° 0 mm 4 mps 469 mmHg 19%
    18:00 +8°C° 0 mm 4 mps 468 mmHg 23%
    19:00 +7°C° 0 mm 3 mps 467 mmHg 28%
    20:00 +5°C° 0 mm 2 mps 466 mmHg 32%
    21:00 +5°C° 0 mm 2 mps 466 mmHg 33%
    22:00 +4°C° 0 mm 2 mps 466 mmHg 33%
    23:00 +4°C° 0 mm 2 mps 465 mmHg 33%

    Tomorrow, 19 June, Wednesday

    Time Temperature Precipitation Wind Pressure Humidity
    00:00 +3°C° 0 mm 2 mps 465 mmHg 33%
    01:00 +3°C° 0 mm 2 mps 465 mmHg 33%
    02:00 +2°C° 0 mm 2 mps 464 mmHg 32%
    03:00 +2°C° 0 mm 2 mps 464 mmHg 31%
    04:00 +1°C° 0 mm 2 mps 464 mmHg 30%
    05:00 +1°C° 0 mm 2 mps 464 mmHg 29%
    06:00 +3°C° 0 mm 1 mps 465 mmHg 29%
    07:00 +4°C° 0 mm 1 mps 466 mmHg 28%
    08:00 +5°C° 0 mm 1 mps 467 mmHg 28%
    09:00 +7°C° 0 mm 1 mps 469 mmHg 23%
    10:00 +9°C° 0 mm 1 mps 470 mmHg 18%
    11:00 +11°C° 0 mm 1 mps 472 mmHg 13%
    12:00 +12°C° 0 mm 1 mps 471 mmHg 13%
    13:00 +12°C° 0 mm 1 mps 471 mmHg 12%
    14:00 +13°C° 0 mm 1 mps 471 mmHg 12%
    15:00 +13°C° 0 mm 1 mps 471 mmHg 13%
    16:00 +13°C° 0 mm 1 mps 471 mmHg 14%
    17:00 +13°C° 0 mm 2 mps 470 mmHg 16%
    18:00 +11°C° 0 mm 1 mps 469 mmHg 23%
    19:00 +9°C° 0 mm 1 mps 469 mmHg 30%
    20:00 +7°C° 0 mm 1 mps 468 mmHg 38%
    21:00 +6°C° 0 mm 1 mps 467 mmHg 41%
    22:00 +5°C° 0 mm 1 mps 467 mmHg 43%
    23:00 +4°C° 0 mm 0 mps 467 mmHg 46%

    Day after tomorrow, 20 June, Thursday

    Time Temperature Precipitation Wind Pressure Humidity
    00:00 +4°C° 0 mm 1 mps 466 mmHg 48%
    01:00 +4°C° 0 mm 1 mps 466 mmHg 50%
    02:00 +3°C° 0 mm 1 mps 465 mmHg 52%
    03:00 +3°C° 0 mm 1 mps 465 mmHg 51%
    04:00 +1°C° 0 mm 0 mps 465 mmHg 49%
    05:00 +1°C° 0 mm 0 mps 464 mmHg 48%
    06:00 +2°C° 0 mm 0 mps 466 mmHg 46%
    07:00 +3°C° 0 mm 0 mps 467 mmHg 44%
    08:00 +4°C° 0 mm 0 mps 468 mmHg 42%
    09:00 +6°C° 0 mm 0 mps 469 mmHg 36%
    10:00 +9°C° 0 mm 1 mps 471 mmHg 30%
    11:00 +11°C° 0 mm 1 mps 472 mmHg 23%
    12:00 +11°C° 0 mm 1 mps 472 mmHg 22%
    13:00 +12°C° 0 mm 1 mps 472 mmHg 22%
    14:00 +13°C° 0 mm 2 mps 472 mmHg 21%
    15:00 +13°C° 0 mm 2 mps 471 mmHg 25%
    16:00 +12°C° 0 mm 2 mps 471 mmHg 28%
    17:00 +12°C° 0 mm 2 mps 470 mmHg 32%
    18:00 +9°C° 0 mm 2 mps 470 mmHg 43%
    19:00 +9°C° 0 mm 1 mps 469 mmHg 55%
    20:00 +7°C° 0 mm 1 mps 468 mmHg 66%
    21:00 +6°C° 0 mm 1 mps 468 mmHg 68%
    22:00 +6°C° 0 mm 1 mps 468 mmHg 71%
    23:00 +5°C° 0 mm 1 mps 467 mmHg 73%

    21 June, Friday

    Time Temperature Precipitation Wind Pressure Humidity
    00:00 +5°C° 0 mm 1 mps 467 mmHg 71%
    01:00 +4°C° 0 mm 1 mps 466 mmHg 69%
    02:00 +4°C° 0 mm 1 mps 466 mmHg 67%
    03:00 +3°C° 0 mm 1 mps 465 mmHg 61%
    04:00 +3°C° 0 mm 1 mps 465 mmHg 55%
    05:00 +2°C° 0 mm 1 mps 465 mmHg 49%
    06:00 +3°C° 0 mm 1 mps 466 mmHg 45%
    07:00 +4°C° 0 mm 1 mps 467 mmHg 41%
    08:00 +5°C° 0 mm 1 mps 468 mmHg 38%
    09:00 +7°C° 0 mm 1 mps 469 mmHg 30%
    10:00 +9°C° 0 mm 1 mps 471 mmHg 23%
    11:00 +11°C° 0 mm 1 mps 472 mmHg 16%
    12:00 +12°C° 0 mm 1 mps 472 mmHg 14%
    13:00 +13°C° 0 mm 1 mps 472 mmHg 13%
    14:00 +14°C° 0 mm 1 mps 472 mmHg 12%
    15:00 +14°C° 0 mm 1 mps 471 mmHg 13%
    16:00 +13°C° 0 mm 2 mps 471 mmHg 15%
    17:00 +13°C° 0 mm 2 mps 471 mmHg 17%
    18:00 +11°C° 0 mm 1 mps 470 mmHg 26%
    19:00 +9°C° 0 mm 1 mps 469 mmHg 35%
    20:00 +7°C° 0 mm 1 mps 468 mmHg 43%
    21:00 +7°C° 0 mm 1 mps 468 mmHg 44%
    22:00 +6°C° 0 mm 1 mps 467 mmHg 44%
    23:00 +6°C° 0 mm 1 mps 467 mmHg 44%

    22 June, Saturday

    Time Temperature Precipitation Wind Pressure Humidity
    00:00 +5°C° 0 mm 1 mps 466 mmHg 42%
    01:00 +5°C° 0 mm 1 mps 466 mmHg 41%
    02:00 +4°C° 0 mm 1 mps 466 mmHg 39%
    03:00 +4°C° 0 mm 1 mps 465 mmHg 37%
    04:00 +3°C° 0 mm 1 mps 465 mmHg 34%
    05:00 +3°C° 0 mm 1 mps 464 mmHg 32%
    06:00 +4°C° 0 mm 1 mps 466 mmHg 31%
    07:00 +5°C° 0 mm 1 mps 467 mmHg 30%
    08:00 +6°C° 0 mm 1 mps 468 mmHg 30%
    09:00 +8°C° 0 mm 1 mps 469 mmHg 24%
    10:00 +10°C° 0 mm 1 mps 471 mmHg 18%
    11:00 +12°C° 0 mm 1 mps 472 mmHg 12%
    12:00 +13°C° 0 mm 1 mps 472 mmHg 12%
    13:00 +13°C° 0 mm 1 mps 472 mmHg 11%
    14:00 +14°C° 0 mm 2 mps 472 mmHg 10%
    15:00 +14°C° 0 mm 2 mps 471 mmHg 12%
    16:00 +13°C° 0 mm 2 mps 471 mmHg 13%
    17:00 +12°C° 0 mm 3 mps 471 mmHg 15%
    18:00 +10°C° 0 mm 2 mps 470 mmHg 22%
    19:00 +8°C° 0 mm 2 mps 469 mmHg 29%
    20:00 +7°C° 0 mm 1 mps 468 mmHg 37%
    21:00 +7°C° 0 mm 1 mps 468 mmHg 40%
    22:00 +5°C° 0 mm 0 mps 467 mmHg 43%
    23:00 +4°C° 0 mm 0 mps 467 mmHg 46%

    23 June, Sunday

    Time Temperature Precipitation Wind Pressure Humidity
    00:00 +4°C° 0 mm 0 mps 466 mmHg 46%
    01:00 +3°C° 0 mm 0 mps 466 mmHg 46%
    02:00 +2°C° 0 mm 0 mps 465 mmHg 46%
    03:00 +2°C° 0 mm 0 mps 465 mmHg 43%
    04:00 +3°C° 0 mm 1 mps 464 mmHg 41%
    05:00 +2°C° 0 mm 1 mps 464 mmHg 39%
    06:00 +3°C° 0 mm 1 mps 465 mmHg 37%
    07:00 +4°C° 0 mm 0 mps 466 mmHg 35%
    08:00 +5°C° 0 mm 0 mps 467 mmHg 34%
    09:00 +8°C° 0 mm 1 mps 469 mmHg 27%
    10:00 +9°C° 0 mm 1 mps 470 mmHg 21%
    11:00 +11°C° 0 mm 1 mps 471 mmHg 14%
    12:00 +12°C° 0 mm 1 mps 471 mmHg 13%
    13:00 +13°C° 0 mm 1 mps 471 mmHg 13%
    14:00 +13°C° 0 mm 1 mps 471 mmHg 12%
    15:00 +13°C° 0 mm 1 mps 470 mmHg 13%
    16:00 +13°C° 0 mm 2 mps 470 mmHg 15%
    17:00 +13°C° 0 mm 2 mps 469 mmHg 16%
    18:00 +10°C° 0 mm 2 mps 468 mmHg 24%
    19:00 +9°C° 0 mm 1 mps 467 mmHg 32%
    20:00 +7°C° 0 mm 1 mps 466 mmHg 40%
    21:00 +7°C° 0 mm 1 mps 466 mmHg 39%
    22:00 +6°C° 0 mm 1 mps 465 mmHg 37%
    23:00 +5°C° 0 mm 1 mps 465 mmHg 36%
    Show more